Starlink 11493

operational
NORAD ID: 62410 Int'l Des: 2024-249 Owner: SPXS Country: US Constellation: starlink
LEOCIRCULAR

Starlink 11493について

説明を読み込み中...

リアルタイム位置

3D地球を読み込み中...

次回通過

高度履歴

Altitude vs Time

uPlot chart will show altitude changes over time

軌道要素

1 62410U 24249B 26033.38421206 .00054901 00000-0 42806-3 0 9996
2 62410 42.9981 20.8590 0001286 248.7588 111.3142 15.70866124 63924
Epoch: Feb 2, 2026 • Age: 20 hours

現在のステータス

高度 356.1 km
速度 7.70 km/s
衛星直下点 0.62°N, 167.21°E
打ち上げ日 Dec 23, 2024
運用期間 1.1 years
タイプ internet

技術仕様

分類 Payload
質量 960.00 kg
乾燥質量 910.00 kg
総質量 960.00 kg
長さ 0.30 m
直径 4.10 m
スパン 29.00 m
形状 Box + pan
製造者 SPXS
バスタイプ Starlink V2MD
フェーズステータス In Orbit
所有者/国 SPXS/US

大規模コンステレーション

Loading constellations...